FW9692 Weather Reports


time (UTC)temp
F
wind
direction
speed
knots
gust
knots
rain 1hr
in
rain 24hr
in
rain mn
in
humidity
%
barometer
mb
20260902221554 93 140 11.3 18.2 0.00 0.02 0.00 33 998.7
20260902220057 91 126 15.6 34.8 0.00 0.02 0.00 34 998.7
20260902214556 92 142 31.3 40.8 0.00 0.02 0.00 35 998.2
20260902213051 96 309 4.3 10.4 0.00 0.02 0.00 28 998.5
20260902211547 95 236 7.0 15.6 0.00 0.02 0.00 30 998.6
20260902210051 94 284 13.0 16.5 0.00 0.02 0.00 31 999.0
20260902204549 95 263 12.2 15.6 0.00 0.02 0.00 29 999.2
20260902203112 95 141 12.2 19.1 0.00 0.02 0.00 29 999.2
20260902201604 95 83 6.1 14.8 0.00 0.02 0.00 30 999.4
20260902200125 95 177 7.8 21.7 0.00 0.02 0.00 29 999.7
20260902194548 95 142 7.0 15.6 0.00 0.02 0.00 29 999.8
20260902193046 95 51 2.6 7.8 0.00 0.02 0.00 30 1000.1
20260902191549 95 183 9.6 14.8 0.00 0.02 0.00 29 1000.4
20260902190054 94 64 4.3 10.4 0.00 0.02 0.00 31 1000.7
20260902184545 94 148 8.7 13.9 0.00 0.02 0.00 31 1000.8
20260902183050 94 26 2.6 13.0 0.00 0.02 0.00 32 1001.1
20260902181547 93 18 3.5 10.4 0.00 0.02 0.00 34 1001.4
20260902180044 92 100 6.1 15.6 0.00 0.02 0.00 35 1001.7
20260902174529 92 126 7.8 12.2 0.00 0.02 0.00 35 1002.0
20260902173029 91 186 6.1 13.0 0.00 0.02 0.00 36 1002.2
20260902171527 91 93 5.2 11.3 0.00 0.02 0.00 36 1002.3
20260902170025 90 134 5.2 8.7 0.00 0.02 0.00 38 1002.5
20260902164534 90 135 4.3 10.4 0.00 0.02 0.00 38 1002.5
20260902163032 89 138 1.7 8.7 0.00 0.02 0.00 40 1002.5
20260902161543 88 141 1.7 7.0 0.00 0.02 0.00 41 1002.7
20260902160035 87 189 5.2 9.6 0.00 0.02 0.00 42 1002.6
20260902154523 86 102 3.5 7.8 0.00 0.02 0.00 44 1002.6
20260902153012 84 63 5.2 7.8 0.00 0.02 0.00 46 1002.6
20260902151508 83 69 3.5 5.2 0.00 0.02 0.00 49 1002.6
20260902150007 81 67 4.3 6.1 0.00 0.02 0.00 51 1002.7
20260902144501 79 24 3.5 7.8 0.00 0.02 0.00 55 1002.6
20260902143105 77 45 5.2 7.8 0.00 0.02 0.00 58 1002.6
20260902141601 76 20 2.6 5.2 0.00 0.02 0.00 57 1002.5
20260902134555 76 330 3.5 4.3 0.00 0.02 0.00 56 1002.3
20260902133052 77 346 4.3 7.0 0.00 0.02 0.00 53 1002.1
20260902131551 76 323 4.3 5.2 0.00 0.02 0.00 54 1001.9
20260902130147 76 330 2.6 3.5 0.00 0.02 0.00 56 1001.9
20260902124558 76 9 2.6 5.2 0.00 0.02 0.00 56 1001.9
20260902123047 76 48 2.6 5.2 0.00 0.02 0.00 58 1001.9
20260902121547 75 76 3.5 5.2 0.00 0.02 0.00 59 1001.7
20260902120048 77 344 5.2 7.8 0.00 0.02 0.00 54 1001.6
20260902114543 78 280 6.1 9.6 0.00 0.02 0.00 52 1001.5
20260902113105 75 291 0.9 2.6 0.00 0.02 0.00 58 1001.4
20260902111550 76 83 3.5 7.0 0.00 0.02 0.00 58 1001.5
20260902110039 76 257 5.2 7.8 0.00 0.02 0.00 55 1001.3
20260902104541 77 237 7.0 7.8 0.00 0.02 0.00 54 1001.2
20260902103037 77 213 6.1 7.8 0.00 0.02 0.00 54 1001.1
20260902101540 77 200 5.2 7.8 0.00 0.02 0.00 54 1001.2
20260902100034 77 185 6.1 7.0 0.00 0.02 0.00 55 1001.1
20260902094535 77 167 7.0 8.7 0.00 0.02 0.00 54 1001.1
20260902093033 78 182 7.0 7.8 0.00 0.02 0.00 53 1001.1
20260902091540 79 182 6.1 7.8 0.00 0.02 0.00 52 1001.1
20260902090028 79 182 9.6 13.9 0.00 0.02 0.00 52 1001.2
20260902084527 79 169 12.2 15.6 0.00 0.02 0.02 51 1001.1
20260902083028 80 169 12.2 13.9 0.00 0.02 0.02 51 1001.2
20260902081534 80 171 11.3 12.2 0.00 0.02 0.02 51 1001.2
20260902080022 81 165 12.2 14.8 0.00 0.02 0.02 49 1001.2
20260902074528 80 171 11.3 12.2 0.00 0.02 0.02 50 1001.2
20260902073023 81 173 7.0 8.7 0.00 0.02 0.02 49 1001.2
20260902071529 81 175 7.0 11.3 0.00 0.02 0.02 49 1001.1
20260902070027 81 178 10.4 13.9 0.00 0.02 0.02 49 1001.1
20260902064527 82 178 9.6 13.0 0.00 0.02 0.02 48 1001.3
20260902063022 82 192 8.7 11.3 0.00 0.02 0.02 48 1001.3
20260902061539 82 196 6.1 7.8 0.00 0.02 0.02 47 1001.4
20260902060033 83 202 4.3 9.6 0.00 0.02 0.02 46 1001.4
20260902054532 83 196 7.8 13.9 0.00 0.02 0.02 45 1001.3
20260902053034 83 177 13.0 20.0 0.00 0.02 0.02 45 1001.1
20260902051619 83 171 15.6 19.1 0.00 0.02 0.02 45 1001.0
20260902050019 84 154 15.6 20.0 0.00 0.02 0.02 45 1000.9
20260902044524 84 155 13.9 18.2 0.00 0.02 0.02 45 1000.9
20260902043030 85 160 16.5 20.9 0.00 0.02 0.02 44 1000.9
20260902041524 85 147 14.8 18.2 0.00 0.02 0.02 45 1001.0
20260902040030 85 153 13.9 19.1 0.00 0.02 0.02 45 1000.9
20260902034529 86 167 16.5 22.6 0.00 0.02 0.02 44 1000.9
20260902033034 87 164 13.0 18.2 0.01 0.02 0.02 43 1000.7
20260902031532 87 140 9.6 15.6 0.02 0.02 0.02 42 1000.5
20260902030019 87 161 17.4 19.1 0.02 0.02 0.02 42 1000.2
20260902024516 87 160 12.2 18.2 0.02 0.02 0.02 45 999.9
20260902023020 86 157 15.6 20.9 0.01 0.01 0.01 45 999.6
20260902021517 86 147 16.5 20.0 0.00 0.00 0.00 44 999.8
20260902020016 87 18 14.8 24.3 0.00 0.00 0.00 39 1000.0
20260902014532 86 336 13.0 18.2 0.00 0.00 0.00 44 999.9
20260902013015 88 291 11.3 18.2 0.00 0.00 0.00 43 999.7
20260902011523 88 326 13.9 19.1 0.00 0.00 0.00 41 999.4
20260902010014 92 265 6.1 12.2 0.00 0.00 0.00 33 999.4
20260902004515 93 182 8.7 14.8 0.00 0.00 0.00 32 999.1
20260902003020 93 163 13.0 20.0 0.00 0.00 0.00 32 998.8
20260902001521 93 184 17.4 21.7 0.00 0.00 0.00 32 998.7
20260902000016 94 141 18.2 26.1 0.00 0.00 0.00 31 998.5
20260901234531 95 144 15.6 24.3 0.00 0.00 0.00 30 998.4
20260901233010 95 144 13.0 17.4 0.00 0.00 0.00 27 998.2
20260901231511 95 146 8.7 16.5 0.00 0.00 0.00 28 998.2
20260901230008 95 137 11.3 19.1 0.00 0.00 0.00 28 998.2
20260901224549 96 144 9.6 18.2 0.00 0.00 0.00 28 998.2
20260901223027 95 121 5.2 16.5 0.00 0.00 0.00 29 998.3